Simultaneous Nadir Overpasses (SNOs) Predictions

Prediction of SNOs near US between AQUA and NPP Satellite Orbit:

Table of predicted SNOs near US for the next 10.0 days since TLE Epoch: 10/30/2021
Index Date (AQUA) Time (AQUA) AQUA Lat,Lon Date (NPP) Time (NPP) NPP Lat,Lon Distance(km) Time Diff (sec)
1 10/31/2021 18:17:04 50.00, -80.20 10/31/2021 18:11:48 49.70, -81.95 129.60 316
2 10/31/2021 19:55:57 49.99,-104.92 10/31/2021 19:53:16 49.59,-107.28 174.86 161
3 11/03/2021 09:23:00 26.09,-112.79 11/03/2021 09:16:21 26.20,-113.37 58.91 399
4 11/06/2021 06:30:30 46.39, -65.02 11/06/2021 06:31:54 46.85, -67.17 172.06 84
5 11/06/2021 08:08:24 49.90, -88.35 11/06/2021 08:12:22 50.42, -91.02 198.80 238
6 11/06/2021 09:47:17 49.90,-113.07 11/06/2021 09:53:50 50.53,-116.34 243.18 393
7 11/08/2021 19:06:35 50.00, -92.58 11/08/2021 19:02:43 49.66, -94.65 153.63 232
